When you browse on this site, cookies collect data to enhance your experience and personalize the content and advertising you see.
Visit our Privacy Policy to learn more. By continuing to use the site, you agree to this use of cookies and data.
  • In Switzerland
  • List of Countries
  • For 7 days
  • Water Temperature
  • Weather Map
  • Weather Widgets
  • user-avatar
    Login

    Hourly Weather Chelmsford

    Today, 18 September, Wednesday

    Time Temperature Precipitation Wind Pressure Humidity
    00:00 +9°C° 0 mm 3 mps 768 mmHg 79%
    01:00 +9°C° 0 mm 2 mps 768 mmHg 80%
    02:00 +9°C° 0 mm 2 mps 768 mmHg 81%
    03:00 +8°C° 0 mm 2 mps 767 mmHg 82%
    04:00 +8°C° 0 mm 2 mps 768 mmHg 81%
    05:00 +8°C° 0 mm 2 mps 768 mmHg 81%
    06:00 +8°C° 0 mm 2 mps 768 mmHg 81%
    07:00 +10°C° 0 mm 2 mps 769 mmHg 74%
    08:00 +12°C° 0 mm 3 mps 769 mmHg 66%
    09:00 +13°C° 0 mm 3 mps 769 mmHg 59%
    10:00 +14°C° 0 mm 3 mps 769 mmHg 55%
    11:00 +16°C° 0 mm 3 mps 769 mmHg 51%
    12:00 +17°C° 0 mm 3 mps 769 mmHg 47%
    13:00 +18°C° 0 mm 3 mps 769 mmHg 47%
    14:00 +18°C° 0 mm 3 mps 769 mmHg 47%
    15:00 +19°C° 0 mm 3 mps 768 mmHg 46%
    16:00 +17°C° 0 mm 2 mps 768 mmHg 52%
    17:00 +16°C° 0 mm 2 mps 768 mmHg 58%
    18:00 +15°C° 0 mm 2 mps 768 mmHg 64%
    19:00 +14°C° 0 mm 2 mps 768 mmHg 68%
    20:00 +13°C° 0 mm 2 mps 769 mmHg 71%
    21:00 +13°C° 0 mm 2 mps 769 mmHg 74%
    22:00 +12°C° 0 mm 1 mps 769 mmHg 76%
    23:00 +12°C° 0 mm 1 mps 769 mmHg 77%

    Tomorrow, 19 September, Thursday

    Time Temperature Precipitation Wind Pressure Humidity
    00:00 +12°C° 0 mm 1 mps 769 mmHg 78%
    01:00 +12°C° 0 mm 1 mps 769 mmHg 79%
    02:00 +12°C° 0 mm 1 mps 769 mmHg 80%
    03:00 +12°C° 0 mm 1 mps 769 mmHg 81%
    04:00 +11°C° 0 mm 1 mps 769 mmHg 81%
    05:00 +11°C° 0 mm 1 mps 769 mmHg 81%
    06:00 +11°C° 0 mm 1 mps 769 mmHg 82%
    07:00 +13°C° 0 mm 1 mps 770 mmHg 74%
    08:00 +14°C° 0 mm 0 mps 770 mmHg 67%
    09:00 +16°C° 0 mm 0 mps 770 mmHg 60%
    10:00 +19°C° 0 mm 1 mps 770 mmHg 57%
    11:00 +19°C° 0 mm 2 mps 770 mmHg 55%
    12:00 +20°C° 0 mm 2 mps 770 mmHg 52%
    13:00 +20°C° 0 mm 2 mps 769 mmHg 52%
    14:00 +20°C° 0 mm 3 mps 769 mmHg 52%
    15:00 +20°C° 0 mm 3 mps 769 mmHg 53%
    16:00 +19°C° 0 mm 3 mps 769 mmHg 58%
    17:00 +17°C° 0 mm 3 mps 768 mmHg 64%
    18:00 +16°C° 0 mm 3 mps 768 mmHg 70%
    19:00 +14°C° 0 mm 3 mps 768 mmHg 73%
    20:00 +14°C° 0 mm 3 mps 769 mmHg 76%
    21:00 +13°C° 0 mm 3 mps 769 mmHg 79%
    22:00 +13°C° 0 mm 3 mps 769 mmHg 80%
    23:00 +14°C° 0 mm 2 mps 768 mmHg 82%

    Day after tomorrow, 20 September, Friday

    Time Temperature Precipitation Wind Pressure Humidity
    00:00 +13°C° 0 mm 2 mps 768 mmHg 84%
    01:00 +13°C° 0 mm 2 mps 768 mmHg 86%
    02:00 +13°C° 0 mm 2 mps 768 mmHg 87%
    03:00 +13°C° 0 mm 2 mps 768 mmHg 88%
    04:00 +12°C° 0 mm 3 mps 767 mmHg 89%
    05:00 +12°C° 0 mm 3 mps 767 mmHg 89%
    06:00 +12°C° 0 mm 3 mps 767 mmHg 90%
    07:00 +13°C° 0 mm 4 mps 767 mmHg 81%
    08:00 +15°C° 0 mm 5 mps 767 mmHg 73%
    09:00 +16°C° 0 mm 5 mps 767 mmHg 64%
    10:00 +17°C° 0 mm 6 mps 766 mmHg 60%
    11:00 +17°C° 0 mm 6 mps 766 mmHg 55%
    12:00 +19°C° 0 mm 6 mps 765 mmHg 51%
    13:00 +18°C° 0 mm 7 mps 765 mmHg 52%
    14:00 +17°C° 0 mm 7 mps 764 mmHg 52%
    15:00 +17°C° 0 mm 7 mps 763 mmHg 53%
    16:00 +16°C° 0 mm 7 mps 763 mmHg 57%
    17:00 +16°C° 0 mm 6 mps 762 mmHg 61%
    18:00 +15°C° 0 mm 6 mps 762 mmHg 65%
    19:00 +15°C° 0 mm 6 mps 762 mmHg 65%
    20:00 +15°C° 0 mm 6 mps 761 mmHg 65%
    21:00 +15°C° 0 mm 7 mps 761 mmHg 65%
    22:00 +15°C° 0 mm 6 mps 761 mmHg 64%
    23:00 +15°C° 0 mm 6 mps 760 mmHg 62%

    21 September, Saturday

    Time Temperature Precipitation Wind Pressure Humidity
    00:00 +15°C° 0 mm 6 mps 760 mmHg 61%
    01:00 +14°C° 0 mm 6 mps 759 mmHg 61%
    02:00 +14°C° 0 mm 6 mps 759 mmHg 61%
    03:00 +13°C° 0 mm 5 mps 758 mmHg 61%
    04:00 +13°C° 0 mm 5 mps 758 mmHg 63%
    05:00 +13°C° 0 mm 5 mps 757 mmHg 66%
    06:00 +12°C° 0 mm 5 mps 757 mmHg 68%
    07:00 +14°C° 0 mm 5 mps 757 mmHg 64%
    08:00 +15°C° 0 mm 6 mps 756 mmHg 60%
    09:00 +16°C° 0 mm 6 mps 756 mmHg 56%
    10:00 +17°C° 0 mm 6 mps 756 mmHg 54%
    11:00 +19°C° 0 mm 6 mps 755 mmHg 52%
    12:00 +20°C° 0 mm 6 mps 755 mmHg 50%
    13:00 +21°C° 0 mm 6 mps 754 mmHg 50%
    14:00 +21°C° 0 mm 6 mps 754 mmHg 51%
    15:00 +21°C° 0 mm 6 mps 753 mmHg 51%
    16:00 +21°C° 0 mm 5 mps 753 mmHg 56%
    17:00 +20°C° 0 mm 5 mps 752 mmHg 61%
    18:00 +19°C° 0 mm 4 mps 752 mmHg 66%
    19:00 +19°C° 0 mm 4 mps 752 mmHg 69%
    20:00 +19°C° 0 mm 4 mps 751 mmHg 72%
    21:00 +19°C° 0 mm 4 mps 751 mmHg 75%
    22:00 +19°C° 0.2 mm 4 mps 751 mmHg 78%
    23:00 +19°C° 0.2 mm 4 mps 751 mmHg 81%

    22 September, Sunday

    Time Temperature Precipitation Wind Pressure Humidity
    00:00 +19°C° 0.2 mm 3 mps 750 mmHg 85%
    01:00 +19°C° 0.1 mm 3 mps 750 mmHg 86%
    02:00 +19°C° 0.1 mm 4 mps 750 mmHg 87%
    03:00 +19°C° 0.1 mm 4 mps 750 mmHg 88%
    04:00 +19°C° 0.2 mm 4 mps 750 mmHg 90%
    05:00 +17°C° 0.2 mm 5 mps 749 mmHg 91%
    06:00 +17°C° 0.2 mm 5 mps 749 mmHg 93%
    07:00 +19°C° 0.1 mm 5 mps 749 mmHg 88%
    08:00 +20°C° 0.1 mm 5 mps 750 mmHg 83%
    09:00 +20°C° 0.1 mm 5 mps 750 mmHg 78%
    10:00 +20°C° 0.2 mm 5 mps 750 mmHg 78%
    11:00 +19°C° 0.2 mm 5 mps 750 mmHg 78%
    12:00 +17°C° 0.2 mm 5 mps 751 mmHg 78%
    13:00 +19°C° 0 mm 6 mps 751 mmHg 70%
    14:00 +21°C° 0 mm 6 mps 751 mmHg 62%
    15:00 +22°C° 0 mm 7 mps 751 mmHg 54%
    16:00 +21°C° 0 mm 6 mps 751 mmHg 57%
    17:00 +19°C° 0 mm 5 mps 751 mmHg 61%
    18:00 +18°C° 0 mm 4 mps 751 mmHg 64%
    19:00 +17°C° 0 mm 4 mps 752 mmHg 68%
    20:00 +17°C° 0 mm 4 mps 752 mmHg 73%
    21:00 +15°C° 0 mm 4 mps 752 mmHg 77%
    22:00 +14°C° 0 mm 4 mps 752 mmHg 79%
    23:00 +14°C° 0 mm 4 mps 753 mmHg 80%

    23 September, Monday

    Time Temperature Precipitation Wind Pressure Humidity
    00:00 +13°C° 0 mm 4 mps 753 mmHg 82%
    01:00 +13°C° 0 mm 4 mps 753 mmHg 84%
    02:00 +13°C° 0 mm 4 mps 753 mmHg 86%
    03:00 +13°C° 0 mm 4 mps 754 mmHg 87%
    04:00 +12°C° 0 mm 4 mps 754 mmHg 89%
    05:00 +12°C° 0 mm 4 mps 754 mmHg 90%
    06:00 +11°C° 0 mm 4 mps 755 mmHg 92%
    07:00 +13°C° 0 mm 4 mps 755 mmHg 82%
    08:00 +14°C° 0 mm 5 mps 756 mmHg 72%
    09:00 +15°C° 0 mm 6 mps 756 mmHg 61%
    10:00 +16°C° 0 mm 6 mps 756 mmHg 57%
    11:00 +19°C° 0 mm 5 mps 757 mmHg 52%
    12:00 +20°C° 0 mm 5 mps 757 mmHg 48%
    13:00 +20°C° 0 mm 5 mps 757 mmHg 49%
    14:00 +19°C° 0 mm 5 mps 757 mmHg 50%
    15:00 +19°C° 0 mm 5 mps 756 mmHg 51%
    16:00 +17°C° 0 mm 5 mps 756 mmHg 58%
    17:00 +17°C° 0 mm 5 mps 756 mmHg 64%
    18:00 +16°C° 0 mm 5 mps 756 mmHg 71%
    19:00 +15°C° 0.2 mm 5 mps 756 mmHg 76%
    20:00 +15°C° 0.2 mm 6 mps 755 mmHg 82%
    21:00 +14°C° 0.2 mm 6 mps 755 mmHg 87%
    22:00 +15°C° 0.7 mm 6 mps 755 mmHg 89%
    23:00 +15°C° 0.7 mm 5 mps 755 mmHg 91%
    Show more